QPF
0.00 0.04 0.04 0.03 0.08 0.02 0.04 0.04 0.01 0.01 0.00 0.04 0.02 0.00 0.00 0.00 0.00 0.00 0.00 0.00 0.00 0.00 0.00 0.00 0.00 0.00 0.00 0.00 0.00 0.00 0.00 0.00 0.00 0.00 0.00 0.00 0.00 0.00 0.00 0.00 0.00 0.00 0.00 0.00
0.01 0.03 0.10 0.05 0.06 0.03 0.02 0.06 0.02 0.06 0.01 0.01 0.00 0.00 0.00 0.00 0.00 0.00 0.00 0.00 0.00 0.00 0.00 0.00 0.00 0.00 0.00 0.00 0.00 0.00 0.00 0.00 0.00 0.00 0.00 0.00 0.00 0.00 0.00 0.00 0.00 0.00 0.00 0.00
0.02 0.03 0.10 0.11 0.05 0.04 0.02 0.06 0.03 0.10 0.05 0.00 0.00 0.00 0.00 0.00 0.00 0.00 0.00 0.00 0.00 0.00 0.00 0.00 0.00 0.00 0.00 0.00 0.00 0.00 0.00 0.00 0.00 0.00 0.00 0.00 0.00 0.00 0.00 0.00 0.00 0.00 0.00 0.00
0.04 0.02 0.07 0.13 0.06 0.02 0.05 0.07 0.01 0.02 0.02 0.00 0.00 0.00 0.00 0.00 0.00 0.00 0.00 0.00 0.00 0.00 0.00 0.00 0.00 0.00 0.00 0.00 0.00 0.00 0.00 0.00 0.00 0.00 0.00 0.00 0.00 0.00 0.00 0.00 0.00 0.00 0.00 0.00
0.05 0.03 0.05 0.08 0.05 0.02 0.10 0.11 0.01 0.01 0.00 0.00 0.00 0.00 0.00 0.00 0.00 0.00 0.00 0.00 0.00 0.00 0.00 0.00 0.00 0.00 0.00 0.00 0.00 0.00 0.00 0.00 0.00 0.00 0.00 0.00 0.00 0.00 0.00 0.00 0.00 0.00 0.00 0.00
0.07 0.04 0.04 0.05 0.03 0.03 0.10 0.10 0.00 0.01 0.00 0.00 0.00 0.00 0.00 0.00 0.00 0.00 0.00 0.00 0.00 0.00 0.00 0.00 0.00 0.00 0.00 0.00 0.00 0.00 0.00 0.00 0.00 0.00 0.00 0.00 0.00 0.00 0.00 0.00 0.00 0.00 0.00 0.00
0.08 0.05 0.03 0.04 0.03 0.02 0.03 0.04 0.01 0.03 0.00 0.00 0.00 0.00 0.00 0.00 0.00 0.00 0.00 0.00 0.00 0.00 0.00 0.00 0.00 0.00 0.00 0.00 0.00 0.00 0.00 0.00 0.00 0.00 0.00 0.00 0.00 0.00 0.00 0.00 0.00 0.00 0.00 0.00
0.08 0.05 0.02 0.01 0.02 0.01 0.00 0.01 0.01 0.09 0.03 0.00 0.00 0.00 0.00 0.00 0.00 0.00 0.00 0.00 0.00 0.00 0.00 0.01 0.00 0.00 0.00 0.00 0.00 0.00 0.00 0.00 0.00 0.00 0.00 0.00 0.00 0.00 0.00 0.00 0.00 0.00 0.00 0.00
0.07 0.03 0.01 0.00 0.01 0.01 0.00 0.00 0.02 0.17 0.11 0.01 0.00 0.00 0.00 0.00 0.00 0.00 0.00 0.00 0.00 0.00 0.00 0.01 0.02 0.01 0.00 0.00 0.00 0.00 0.00 0.00 0.00 0.00 0.00 0.00 0.00 0.00 0.00 0.00 0.00 0.00 0.00 0.00
0.04 0.01 0.00 0.00 0.00 0.01 0.00 0.03 0.04 0.17 0.14 0.04 0.01 0.00 0.00 0.00 0.00 0.00 0.00 0.00 0.00 0.00 0.00 0.01 0.01 0.01 0.00 0.00 0.00 0.00 0.00 0.00 0.00 0.00 0.00 0.00 0.00 0.00 0.00 0.00 0.00 0.00 0.00 0.00
0.01 0.00 0.00 0.00 0.02 0.02 0.01 0.03 0.13 0.17 0.10 0.02 0.04 0.03 0.00 0.00 0.00 0.00 0.00 0.00 0.00 0.00 0.00 0.01 0.01 0.00 0.00 0.00 0.00 0.00 0.00 0.00 0.00 0.00 0.00 0.00 0.00 0.00 0.00 0.00 0.00 0.00 0.00 0.00
0.01 0.00 0.01 0.01 0.02 0.02 0.02 0.03 0.12 0.18 0.11 0.03 0.02 0.01 0.00 0.00 0.00 0.00 0.00 0.00 0.00 0.00 0.00 0.00 0.01 0.00 0.00 0.00 0.00 0.00 0.00 0.00 0.00 0.00 0.00 0.00 0.00 0.00 0.00 0.00 0.00 0.00 0.00 0.00
0.01 0.02 0.02 0.02 0.03 0.03 0.03 0.03 0.09 0.17 0.09 0.01 0.00 0.00 0.01 0.00 0.00 0.00 0.00 0.00 0.00 0.00 0.00 0.02 0.01 0.00 0.00 0.00 0.00 0.00 0.00 0.00 0.00 0.00 0.00 0.00 0.00 0.00 0.00 0.00 0.00 0.00 0.00 0.00
0.01 0.03 0.03 0.03 0.03 0.03 0.03 0.03 0.09 0.14 0.04 0.03 0.02 0.03 0.03 0.03 0.00 0.00 0.00 0.00 0.00 0.02 0.02 0.04 0.02 0.00 0.00 0.00 0.00 0.00 0.00 0.00 0.00 0.00 0.00 0.00 0.00 0.00 0.00 0.00 0.00 0.00 0.00 0.00
0.02 0.03 0.03 0.03 0.03 0.03 0.03 0.03 0.16 0.09 0.03 0.02 0.01 0.03 0.04 0.04 0.02 0.01 0.00 0.00 0.02 0.04 0.05 0.03 0.02 0.01 0.01 0.00 0.00 0.00 0.00 0.00 0.00 0.00 0.00 0.00 0.00 0.00 0.00 0.00 0.00 0.00 0.00 0.00
0.02 0.02 0.03 0.03 0.03 0.03 0.05 0.06 0.16 0.12 0.06 0.12 0.05 0.01 0.01 0.02 0.06 0.03 0.00 0.00 0.01 0.03 0.04 0.02 0.02 0.01 0.00 0.00 0.00 0.00 0.00 0.00 0.00 0.00 0.00 0.00 0.00 0.00 0.00 0.00 0.00 0.00 0.00 0.00
0.00 0.01 0.02 0.03 0.03 0.03 0.05 0.06 0.04 0.02 0.08 0.17 0.07 0.01 0.01 0.03 0.08 0.05 0.02 0.01 0.01 0.03 0.05 0.02 0.00 0.00 0.00 0.00 0.00 0.00 0.00 0.00 0.00 0.00 0.00 0.00 0.00 0.00 0.00 0.00 0.00 0.00 0.00 0.00
0.02 0.02 0.05 0.05 0.05 0.02 0.01 0.04 0.10 0.02 0.07 0.16 0.08 0.01 0.11 0.12 0.08 0.05 0.03 0.02 0.03 0.03 0.03 0.02 0.01 0.00 0.00 0.00 0.00 0.00 0.00 0.00 0.00 0.00 0.00 0.00 0.00 0.00 0.00 0.00 0.00 0.00 0.00 0.00
0.08 0.09 0.10 0.10 0.06 0.02 0.03 0.11 0.20 0.15 0.10 0.11 0.03 0.00 0.09 0.22 0.19 0.06 0.02 0.05 0.14 0.14 0.05 0.01 0.01 0.02 0.01 0.00 0.00 0.00 0.00 0.00 0.00 0.00 0.00 0.00 0.00 0.00 0.00 0.00 0.00 0.00 0.00 0.00
0.11 0.17 0.13 0.08 0.03 0.04 0.08 0.21 0.32 0.25 0.18 0.12 0.05 0.03 0.02 0.13 0.35 0.25 0.05 0.11 0.20 0.25 0.24 0.12 0.02 0.01 0.03 0.01 0.00 0.00 0.00 0.00 0.00 0.00 0.00 0.00 0.00 0.00 0.00 0.00 0.00 0.00 0.00 0.00
0.10 0.06 0.09 0.05 0.11 0.07 0.07 0.17 0.17 0.11 0.06 0.03 0.06 0.09 0.03 0.03 0.14 0.34 0.18 0.15 0.11 0.10 0.16 0.18 0.20 0.05 0.00 0.00 0.00 0.00 0.00 0.00 0.00 0.00 0.00 0.00 0.00 0.00 0.00 0.00 0.00 0.00 0.00 0.00
0.13 0.15 0.10 0.07 0.14 0.14 0.14 0.19 0.17 0.07 0.02 0.01 0.05 0.20 0.17 0.04 0.05 0.27 0.32 0.08 0.12 0.05 0.03 0.07 0.10 0.04 0.00 0.00 0.00 0.00 0.00 0.00 0.00 0.00 0.00 0.00 0.00 0.00 0.00 0.00 0.00 0.00 0.00 0.00
0.32 0.08 0.06 0.09 0.14 0.20 0.23 0.17 0.08 0.03 0.01 0.01 0.01 0.02 0.13 0.06 0.01 0.07 0.15 0.10 0.04 0.03 0.02 0.01 0.00 0.00 0.00 0.00 0.00 0.00 0.00 0.00 0.00 0.00 0.02 0.03 0.03 0.03 0.02 0.01 0.00 0.00 0.00 0.00
0.19 0.19 0.21 0.22 0.19 0.15 0.14 0.08 0.02 0.00 0.00 0.01 0.01 0.00 0.00 0.02 0.01 0.01 0.01 0.03 0.02 0.01 0.00 0.00 0.00 0.00 0.00 0.00 0.00 0.00 0.00 0.00 0.00 0.01 0.02 0.04 0.05 0.05 0.04 0.01 0.00 0.00 0.00 0.00
0.22 0.25 0.14 0.10 0.08 0.08 0.07 0.05 0.02 0.01 0.02 0.01 0.01 0.00 0.00 0.00 0.02 0.02 0.03 0.02 0.02 0.01 0.01 0.00 0.00 0.00 0.00 0.00 0.00 0.01 0.03 0.06 0.08 0.09 0.08 0.06 0.04 0.02 0.02 0.01 0.00 0.00 0.00 0.00
0.04 0.08 0.06 0.03 0.02 0.03 0.02 0.01 0.01 0.02 0.02 0.01 0.01 0.01 0.01 0.02 0.01 0.01 0.04 0.04 0.03 0.03 0.03 0.01 0.01 0.02 0.04 0.06 0.07 0.07 0.06 0.05 0.05 0.06 0.03 0.02 0.01 0.01 0.01 0.00 0.00 0.00 0.00 0.00
0.03 0.07 0.05 0.02 0.02 0.03 0.03 0.02 0.02 0.02 0.01 0.01 0.01 0.02 0.05 0.04 0.01 0.01 0.02 0.05 0.07 0.09 0.08 0.05 0.05 0.07 0.08 0.09 0.09 0.08 0.05 0.04 0.04 0.03 0.02 0.01 0.00 0.00 0.00 0.00 0.00 0.00 0.00 0.00
MSLP
1003.85 1005.39 1006.89 1008.02 1009.46 1010.29 1011.91 1012.37 1012.20 1011.11 1012.11 1013.04 1012.11 1011.20 1010.66 1010.87 1010.20 1009.66 1009.27 1008.73 1008.32 1007.85 1007.55 1007.73 1007.88 1008.01 1007.55 1007.20 1008.00 1009.50 1009.85 1010.46 1011.32 1010.69 1010.16 1010.13 1010.29 1011.32 1012.59 1014.57 1016.16 1016.44 1015.75 1013.03
1002.09 1003.78 1005.47 1006.87 1008.25 1009.06 1010.98 1011.02 1010.85 1010.79 1010.89 1010.90 1009.82 1010.58 1010.47 1010.62 1009.99 1009.55 1009.23 1008.83 1008.18 1007.77 1007.57 1007.79 1007.41 1007.39 1006.87 1007.15 1007.84 1008.59 1009.69 1010.55 1011.45 1011.16 1010.81 1010.56 1010.68 1011.30 1012.26 1013.57 1014.67 1015.46 1015.31 1012.79
1000.41 1002.26 1004.00 1005.59 1007.04 1008.18 1009.92 1010.58 1010.12 1010.18 1010.16 1008.33 1008.93 1009.59 1009.50 1009.95 1009.46 1009.44 1009.10 1008.84 1008.39 1008.09 1007.75 1007.35 1007.13 1007.11 1007.01 1007.20 1007.51 1007.92 1008.61 1010.04 1010.73 1010.91 1010.68 1010.72 1010.98 1011.07 1011.86 1012.74 1014.35 1014.31 1013.81 1012.39
998.90 1000.77 1002.60 1004.28 1005.96 1007.13 1008.76 1009.31 1008.14 1006.78 1007.06 1007.89 1007.90 1008.49 1008.20 1009.12 1008.88 1008.76 1008.92 1008.89 1008.65 1008.25 1008.22 1007.67 1007.35 1007.20 1007.39 1007.73 1007.95 1008.51 1008.75 1010.19 1010.65 1010.37 1010.40 1010.57 1010.34 1010.48 1011.30 1012.07 1012.19 1012.73 1012.35 1012.32
997.47 999.48 1001.19 1002.81 1004.74 1006.42 1007.46 1008.06 1007.37 1006.42 1006.23 1007.60 1008.19 1007.91 1007.32 1007.48 1008.31 1008.14 1008.34 1008.33 1008.17 1008.29 1008.38 1007.70 1007.53 1007.61 1007.46 1007.51 1008.51 1008.83 1009.38 1010.49 1011.17 1011.41 1011.12 1010.77 1010.60 1010.26 1010.63 1011.14 1011.39 1011.57 1011.58 1011.56
996.37 998.43 1000.13 1001.91 1003.64 1005.26 1006.39 1007.66 1007.01 1006.45 1006.29 1006.67 1007.37 1004.72 1006.15 1007.02 1008.09 1007.91 1007.60 1007.72 1008.22 1008.01 1007.57 1007.16 1007.34 1007.70 1007.68 1007.93 1007.89 1008.80 1009.97 1010.85 1012.29 1012.86 1012.42 1011.59 1011.21 1010.32 1010.07 1010.29 1010.17 1010.30 1010.77 1010.45
995.45 997.69 999.74 1001.00 1002.77 1003.98 1004.95 1005.84 1006.28 1006.17 1005.58 1005.46 1004.39 1005.90 1006.53 1006.59 1006.42 1007.27 1007.33 1007.51 1007.97 1007.82 1007.58 1007.55 1007.75 1008.06 1008.01 1008.02 1008.59 1008.72 1010.15 1011.37 1012.65 1013.83 1013.54 1012.33 1009.91 1009.27 1009.24 1009.63 1009.73 1009.88 1010.16 1010.23
994.82 997.09 998.99 1000.76 1002.40 1003.62 1004.40 1005.33 1006.06 1006.15 1005.42 1005.00 1005.07 1005.50 1005.87 1007.03 1007.03 1007.08 1007.15 1007.22 1007.50 1007.89 1008.32 1008.77 1009.07 1009.35 1009.05 1009.29 1009.32 1009.48 1009.77 1011.18 1013.46 1014.26 1013.97 1011.98 1010.04 1009.30 1009.16 1009.30 1009.26 1009.49 1010.03 1010.67
994.72 996.75 998.60 1000.33 1002.20 1003.32 1004.65 1005.30 1006.11 1006.41 1005.63 1004.32 1004.65 1005.15 1005.56 1006.25 1006.55 1007.54 1007.06 1007.75 1007.60 1008.57 1009.20 1010.07 1010.10 1009.84 1009.59 1009.96 1010.02 1010.20 1010.39 1011.20 1012.93 1014.37 1013.97 1012.11 1009.74 1008.10 1008.07 1008.43 1009.01 1009.24 1009.71 1010.83
994.86 996.78 998.54 1000.10 1001.63 1003.16 1004.35 1005.39 1006.50 1006.97 1006.33 1004.55 1004.16 1004.00 1004.69 1005.65 1006.21 1006.34 1006.91 1007.41 1007.97 1008.29 1009.84 1010.53 1010.59 1010.46 1009.63 1009.86 1009.95 1010.65 1011.68 1012.51 1013.51 1014.26 1013.35 1011.20 1008.92 1008.14 1008.24 1008.90 1008.45 1008.51 1009.28 1010.46
995.38 997.03 998.67 1000.24 1001.69 1003.10 1004.48 1005.41 1006.20 1006.91 1006.40 1004.93 1004.78 1003.81 1003.91 1004.69 1004.76 1005.23 1006.05 1007.54 1007.65 1008.71 1009.54 1010.10 1010.43 1010.65 1009.53 1009.44 1009.40 1009.53 1010.45 1012.20 1013.27 1013.33 1012.59 1010.56 1008.09 1008.59 1008.40 1007.55 1007.74 1008.30 1009.31 1010.26
995.91 997.47 999.04 1000.52 1001.91 1003.16 1004.64 1006.02 1006.22 1006.98 1006.77 1005.32 1004.66 1004.27 1003.90 1004.18 1003.36 1004.53 1004.94 1004.79 1005.32 1006.38 1007.84 1008.95 1009.60 1010.16 1009.95 1009.45 1009.82 1009.31 1009.53 1009.17 1010.44 1010.69 1009.46 1008.07 1007.66 1007.50 1007.14 1007.29 1007.76 1008.50 1009.14 1010.33
996.60 998.13 999.56 1000.88 1002.13 1003.35 1004.67 1005.93 1006.38 1007.77 1006.15 1005.55 1005.07 1003.55 1002.80 1003.10 1003.31 1003.25 1004.02 1004.43 1004.36 1004.85 1005.13 1007.21 1008.61 1009.09 1008.95 1009.30 1009.09 1008.82 1008.56 1008.37 1009.00 1009.59 1008.22 1007.99 1007.59 1007.55 1007.64 1007.65 1008.03 1008.55 1009.15 1010.27
997.54 998.92 1000.28 1001.53 1002.66 1003.77 1004.90 1005.58 1006.10 1006.59 1005.60 1005.70 1003.99 1002.75 1002.57 1002.10 1002.39 1002.74 1003.09 1003.18 1003.71 1004.56 1005.49 1006.65 1007.62 1008.18 1007.67 1008.17 1007.54 1007.60 1007.29 1007.83 1008.39 1008.38 1008.04 1008.16 1007.88 1008.01 1008.26 1008.75 1008.95 1009.55 1010.37 1011.04
998.34 999.55 1000.72 1001.80 1002.96 1004.14 1005.19 1005.51 1006.04 1005.88 1005.78 1005.55 1004.22 1002.83 1001.58 1001.60 1001.79 1002.09 1002.33 1002.86 1003.92 1004.91 1006.19 1006.39 1007.02 1007.08 1007.29 1007.67 1007.56 1007.22 1006.34 1006.32 1007.23 1006.41 1006.19 1006.79 1007.42 1008.13 1008.79 1009.35 1010.04 1010.55 1011.04 1012.58
998.87 999.85 1000.86 1001.91 1002.98 1004.05 1005.45 1006.29 1005.83 1005.62 1005.84 1005.96 1005.07 1002.89 1001.79 1001.47 1001.12 1001.37 1001.78 1002.31 1003.57 1004.58 1005.32 1005.85 1005.85 1005.69 1005.68 1007.07 1006.85 1005.25 1004.80 1004.68 1004.52 1005.17 1005.95 1007.25 1008.05 1008.90 1009.61 1010.34 1011.06 1011.61 1012.15 1013.14
999.41 1000.37 1001.34 1002.23 1002.99 1004.09 1004.52 1004.60 1004.20 1004.81 1005.34 1005.90 1005.85 1003.55 1002.00 1001.41 1001.01 1001.39 1002.13 1002.58 1003.48 1004.10 1005.20 1005.86 1005.97 1006.10 1005.64 1006.03 1005.60 1004.81 1004.56 1004.98 1005.39 1005.71 1006.27 1008.51 1008.83 1009.73 1010.52 1011.05 1011.94 1012.57 1013.46 1014.34
999.98 1000.85 1001.75 1002.61 1003.51 1004.12 1004.33 1003.57 1003.69 1004.85 1006.15 1006.69 1005.82 1003.53 1002.41 1001.27 1001.71 1002.32 1002.72 1003.32 1003.93 1004.79 1005.36 1005.80 1006.02 1006.34 1006.29 1006.21 1005.13 1005.59 1005.64 1005.89 1006.30 1006.53 1006.43 1006.79 1008.75 1010.25 1011.35 1011.95 1012.51 1013.47 1014.57 1015.42
1000.46 1001.26 1002.29 1003.31 1003.45 1003.58 1003.35 1003.53 1003.98 1003.84 1005.20 1005.84 1005.06 1003.80 1002.62 1002.37 1002.59 1003.25 1003.41 1003.40 1004.72 1005.34 1005.48 1005.98 1006.10 1006.58 1005.89 1005.25 1005.22 1005.69 1006.48 1006.15 1006.67 1007.59 1008.07 1008.76 1009.56 1010.85 1011.80 1012.43 1013.29 1013.89 1015.25 1016.08
1000.83 1001.85 1002.12 1002.35 1002.93 1003.03 1003.62 1004.91 1004.96 1004.27 1003.83 1004.11 1003.82 1003.28 1003.38 1002.90 1003.23 1004.25 1004.59 1004.40 1005.21 1005.58 1005.93 1005.74 1006.31 1005.93 1005.41 1005.67 1005.40 1005.71 1006.45 1007.01 1007.50 1008.13 1009.43 1010.13 1010.95 1011.60 1012.41 1013.02 1013.85 1014.64 1015.55 1016.58
1000.63 1000.77 1001.23 1001.89 1002.20 1003.20 1004.09 1004.48 1004.63 1003.73 1003.66 1003.63 1003.41 1003.41 1003.09 1003.23 1003.40 1004.00 1005.33 1004.84 1005.39 1005.70 1006.01 1005.80 1006.88 1006.63 1006.22 1006.32 1006.17 1006.37 1006.45 1007.89 1008.05 1007.63 1009.04 1010.04 1010.27 1011.30 1012.68 1014.03 1014.66 1015.47 1016.58 1017.50
1000.15 1000.23 1001.26 1002.45 1003.15 1004.23 1005.15 1004.45 1003.98 1003.62 1003.63 1003.72 1003.35 1003.34 1003.08 1002.95 1002.99 1004.18 1004.87 1004.90 1005.41 1005.48 1005.69 1006.06 1007.11 1006.44 1006.46 1006.35 1006.99 1007.42 1007.59 1008.50 1009.04 1009.32 1010.04 1010.99 1011.84 1012.74 1013.64 1014.78 1015.58 1016.40 1017.62 1018.47
1000.37 1000.97 1002.12 1002.89 1003.94 1004.29 1004.52 1004.07 1004.08 1004.06 1004.15 1004.27 1003.98 1003.76 1003.40 1003.28 1003.15 1004.33 1004.64 1004.91 1005.43 1005.68 1005.88 1006.94 1007.62 1007.57 1007.80 1007.92 1008.25 1008.57 1009.15 1009.80 1010.45 1011.00 1011.59 1012.21 1013.08 1013.99 1014.95 1016.28 1017.09 1017.43 1018.61 1019.69
1001.39 1001.85 1003.23 1003.75 1004.16 1004.54 1004.68 1004.75 1004.74 1004.85 1004.61 1004.29 1004.02 1004.02 1004.07 1004.00 1004.06 1004.80 1005.13 1005.82 1005.81 1006.52 1007.56 1008.15 1008.43 1008.79 1009.16 1009.22 1009.47 1009.79 1010.50 1011.15 1011.68 1012.27 1012.99 1013.75 1014.49 1015.49 1016.36 1017.37 1018.20 1018.64 1019.71 1020.74
1003.05 1003.81 1004.77 1005.29 1005.42 1005.30 1005.12 1004.80 1004.60 1004.67 1004.53 1004.42 1004.42 1004.55 1004.57 1005.06 1005.42 1005.78 1006.13 1006.51 1007.14 1008.08 1009.17 1009.37 1009.30 1009.59 1009.83 1010.19 1010.75 1011.37 1011.93 1012.47 1013.07 1013.64 1014.26 1015.19 1015.93 1016.74 1017.87 1018.60 1019.11 1019.76 1020.60 1021.46
1004.93 1006.20 1006.38 1006.52 1006.37 1006.60 1006.36 1006.22 1005.91 1005.42 1005.11 1004.80 1005.09 1005.85 1006.44 1007.20 1007.55 1007.90 1008.87 1008.82 1010.19 1010.90 1010.76 1010.78 1010.77 1010.99 1011.09 1011.54 1012.18 1012.61 1013.02 1013.59 1014.30 1014.95 1015.71 1016.45 1017.14 1017.85 1018.89 1019.77 1020.46 1021.03 1021.52 1022.27
1007.03 1008.25 1008.44 1008.23 1008.47 1008.75 1008.58 1008.06 1007.47 1006.72 1006.38 1006.98 1007.43 1008.47 1009.61 1009.57 1010.34 1011.61 1012.20 1012.76 1012.70 1012.39 1012.23 1011.98 1011.84 1011.86 1012.32 1012.73 1013.28 1013.88 1014.38 1014.99 1015.62 1016.27 1017.01 1017.71 1018.49 1019.18 1019.86 1020.65 1021.55 1021.97 1022.65 1023.11
Thickness
5414 5413 5408 5412 5412 5423 5426 5443 5455 5489 5487 5490 5514 5529 5545 5551 5565 5572 5581 5592 5599 5610 5617 5615 5616 5618 5630 5638 5633 5618 5620 5605 5584 5614 5632 5636 5634 5622 5613 5585 5595 5565 5559 5589
5412 5410 5406 5404 5405 5412 5417 5436 5460 5468 5479 5488 5523 5530 5537 5541 5557 5562 5573 5583 5596 5609 5613 5612 5617 5620 5637 5632 5631 5619 5616 5597 5575 5596 5615 5624 5624 5623 5616 5598 5581 5579 5564 5594
5409 5407 5403 5399 5400 5405 5408 5420 5433 5450 5472 5520 5523 5526 5535 5537 5556 5559 5570 5577 5589 5599 5605 5610 5617 5620 5632 5630 5633 5628 5627 5602 5600 5596 5609 5614 5615 5619 5613 5607 5573 5584 5579 5610
5407 5404 5401 5397 5394 5398 5401 5405 5433 5480 5483 5499 5521 5528 5540 5536 5546 5559 5565 5569 5576 5589 5593 5604 5611 5619 5622 5627 5622 5622 5621 5604 5605 5612 5618 5615 5619 5625 5608 5606 5608 5597 5611 5599
5405 5402 5399 5398 5390 5388 5394 5404 5436 5472 5492 5505 5503 5518 5534 5543 5547 5555 5558 5567 5579 5580 5582 5599 5607 5612 5615 5621 5617 5616 5613 5603 5607 5607 5608 5613 5614 5617 5610 5609 5612 5608 5607 5606
5402 5399 5398 5395 5389 5385 5388 5399 5432 5460 5489 5493 5495 5538 5540 5542 5544 5551 5564 5574 5574 5574 5591 5606 5607 5607 5609 5615 5617 5611 5604 5590 5585 5591 5587 5599 5583 5602 5609 5611 5616 5616 5601 5616
5399 5395 5393 5393 5388 5392 5404 5420 5435 5457 5469 5497 5519 5519 5527 5536 5554 5552 5564 5571 5566 5579 5592 5596 5599 5597 5601 5607 5604 5609 5592 5590 5570 5557 5565 5560 5613 5619 5619 5609 5611 5612 5613 5614
5397 5394 5393 5390 5387 5388 5396 5411 5423 5448 5462 5496 5507 5513 5521 5521 5540 5545 5554 5564 5571 5576 5575 5573 5577 5567 5590 5590 5592 5597 5602 5581 5562 5565 5563 5585 5611 5612 5607 5603 5606 5608 5605 5601
5393 5394 5393 5390 5385 5386 5386 5401 5415 5432 5458 5485 5505 5507 5514 5515 5533 5532 5548 5556 5565 5560 5556 5544 5557 5564 5578 5575 5588 5589 5590 5578 5578 5539 5558 5562 5597 5620 5616 5612 5587 5607 5603 5595
5392 5392 5390 5389 5387 5382 5381 5391 5401 5415 5440 5477 5495 5508 5514 5521 5530 5537 5543 5550 5549 5557 5516 5530 5541 5559 5578 5571 5580 5575 5559 5547 5560 5515 5541 5570 5602 5614 5609 5582 5598 5605 5602 5593
5388 5388 5387 5386 5383 5380 5376 5386 5398 5413 5438 5466 5479 5504 5515 5524 5537 5535 5543 5536 5534 5519 5535 5536 5540 5530 5563 5566 5584 5583 5584 5561 5540 5527 5532 5569 5606 5601 5591 5602 5605 5602 5596 5590
5386 5384 5382 5381 5380 5376 5368 5371 5391 5405 5428 5457 5472 5490 5507 5518 5543 5540 5542 5555 5556 5554 5544 5533 5532 5546 5527 5565 5565 5584 5586 5590 5576 5578 5584 5604 5604 5607 5607 5603 5602 5599 5595 5587
5381 5379 5378 5377 5377 5374 5372 5374 5391 5394 5425 5447 5463 5491 5512 5521 5532 5543 5544 5545 5558 5560 5570 5553 5553 5556 5548 5565 5561 5580 5587 5589 5584 5584 5600 5598 5603 5603 5602 5603 5601 5596 5593 5584
5375 5374 5373 5373 5373 5372 5371 5376 5389 5401 5428 5435 5467 5493 5508 5526 5534 5543 5549 5557 5556 5555 5559 5546 5548 5557 5566 5559 5582 5573 5585 5585 5579 5580 5593 5594 5597 5594 5591 5582 5581 5576 5571 5567
5372 5372 5372 5373 5372 5372 5371 5377 5386 5403 5423 5437 5461 5490 5517 5528 5535 5544 5552 5553 5548 5545 5546 5538 5554 5548 5558 5543 5558 5547 5585 5592 5580 5588 5602 5600 5600 5582 5577 5575 5567 5564 5560 5545
5372 5373 5375 5375 5375 5376 5372 5371 5388 5406 5421 5432 5448 5488 5512 5527 5540 5546 5553 5555 5545 5545 5550 5547 5558 5568 5573 5559 5560 5596 5597 5600 5607 5609 5594 5577 5570 5566 5564 5558 5552 5548 5542 5534
5371 5373 5374 5376 5378 5378 5383 5391 5405 5414 5429 5437 5446 5476 5509 5526 5540 5540 5540 5541 5540 5549 5545 5534 5545 5555 5565 5552 5578 5596 5593 5588 5580 5580 5580 5563 5565 5555 5545 5542 5534 5529 5520 5511
5371 5373 5375 5377 5378 5381 5387 5405 5413 5416 5420 5431 5449 5486 5504 5529 5527 5531 5529 5528 5533 5534 5538 5533 5536 5539 5532 5551 5575 5565 5563 5564 5562 5562 5569 5573 5549 5537 5528 5524 5520 5510 5498 5489
5367 5370 5372 5373 5382 5389 5402 5416 5428 5442 5442 5441 5459 5489 5502 5515 5518 5515 5518 5525 5522 5523 5525 5526 5534 5528 5551 5568 5561 5555 5553 5564 5551 5545 5544 5540 5533 5522 5516 5510 5502 5495 5482 5474
5367 5372 5380 5380 5393 5406 5412 5414 5425 5442 5454 5461 5472 5491 5500 5514 5503 5506 5505 5504 5514 5523 5514 5523 5522 5531 5541 5542 5551 5549 5542 5539 5537 5530 5521 5516 5509 5506 5500 5495 5487 5478 5469 5457
5380 5390 5394 5404 5417 5417 5415 5419 5429 5447 5456 5462 5477 5481 5499 5502 5504 5503 5488 5501 5496 5516 5514 5529 5517 5524 5530 5528 5535 5535 5535 5524 5528 5534 5521 5513 5509 5499 5486 5474 5466 5457 5447 5437
5405 5410 5411 5411 5416 5415 5421 5437 5445 5459 5475 5465 5482 5487 5499 5498 5505 5496 5490 5498 5495 5521 5502 5513 5514 5512 5511 5516 5514 5514 5514 5507 5505 5504 5498 5490 5483 5474 5465 5455 5446 5437 5424 5414
5420 5421 5417 5426 5417 5437 5444 5468 5466 5475 5464 5468 5474 5490 5486 5492 5497 5488 5496 5504 5502 5491 5506 5504 5491 5498 5495 5496 5496 5495 5491 5486 5481 5476 5472 5466 5459 5451 5443 5429 5419 5415 5404 5391
5429 5436 5431 5437 5442 5440 5442 5451 5458 5456 5461 5467 5472 5478 5480 5476 5488 5481 5501 5483 5490 5494 5487 5487 5483 5481 5479 5480 5479 5477 5470 5464 5460 5455 5448 5441 5435 5426 5418 5409 5401 5395 5382 5370
5431 5430 5437 5435 5432 5435 5441 5447 5457 5458 5461 5463 5470 5473 5477 5475 5480 5473 5484 5493 5485 5478 5469 5464 5467 5466 5465 5462 5457 5452 5447 5442 5438 5432 5426 5418 5412 5405 5393 5384 5378 5370 5360 5350
5426 5419 5425 5426 5435 5434 5439 5442 5450 5454 5458 5464 5468 5468 5471 5464 5462 5464 5449 5470 5449 5443 5441 5441 5445 5444 5444 5441 5436 5432 5429 5424 5418 5413 5406 5398 5391 5383 5371 5361 5353 5345 5338 5328
5417 5410 5405 5413 5418 5418 5422 5427 5434 5441 5452 5453 5450 5444 5433 5440 5435 5426 5418 5419 5419 5419 5422 5425 5429 5430 5426 5423 5418 5413 5409 5403 5397 5391 5382 5374 5365 5357 5350 5342 5331 5325 5314 5305